Other Public Products
Issued by NWS Charleston, SC

Current Version | Previous Version | Graphics & Text | Print | Product List | Glossary On
Versions: 1 2 3 4 5 6 7 8 9 10 11 12 13 14 15 16 17 18 19 20 21 22 23 24 25 26 27 28 29 30 31 32 33 34 35 36 37 38 39 40 41 42 43 44 45 46 47 48 49 50
957 FPUS82 KCHS 211112 OPUCHS TEST...KCHS/KSAV Gateway Observations...TEST National Weather Service Charleston SC 600 AM EST TUE FEB 21 2017 NOTE: "fair" indicates few or no clouds below 12,000 feet with no significant weather and/or obstructions to visibility. SCZ050-WAZ558-NCZ071-TXZ119-213-PAZ071-DCZ001-FLZ074-172-MI076- NYZ176-178-MAZ016-IL014-TNZ027-NJZ106-GAZ044-MD014-211200- ...Gateway Observations for Charleston International... CITY SKY/WX TMP DP RH WIND PRES REMARKS Chas Airport MOCLDY 54 52 93 NE6 30.18R Seattle CLOUDY 41 40 96 N7 29.70S Charlotte CLOUDY 54 46 74 E9 30.21R Dallas DFW PTCLDY 54 50 86 NW9 29.90R Dallas Love FOG 53 53 100 SW3 29.92R VSB 1/16 Philladelphia MOCLDY 35 17 47 NE7 30.38R WCI 29 Wash National CLOUDY 42 25 50 E6 30.36S Baltimore CLOUDY 37 21 52 E6 30.35R WCI 32 Miami MOCLDY 66 57 72 CALM 30.07R Detroit CLOUDY 39 32 76 CALM 30.01S Newark PTCLDY 32 16 51 NE7 30.38S WCI 26 Laguardia CLOUDY 36 17 46 NE8 30.38F WCI 30 J F K PTCLDY 31 17 56 NE8 30.40S WCI 23 Boston Logan CLEAR 31 15 52 NW8 30.38S WCI 23 Ft. Lauderdale MOCLDY 72 59 63 E8 30.06R Chicago O`Hare LGT RAIN 55 51 86 S8 29.90S Chicago Midway LGT RAIN 54 50 86 S7 29.91S Houston Bush MOCLDY 58 57 97 CALM 29.93S Houston Hobby PTCLDY 57 57 100 S5 29.93S Nashville CLOUDY 56 45 66 E7 30.00R Atlanta MOCLDY 56 47 71 E8 30.11S $$ GAZ044-118-TXZ119-213-NCZ071-DCZ001-MDZ014-506-PAZ021-071-NJZ106- NYZ176-178-MAZ106-OHZ011-021-055-MIZ076-KYZ091-ILZ014-INZ047- MNZ060-211200- ...Gateway Observations for Savannah International... CITY SKY/WX TMP DP RH WIND PRES REMARKS Savannah Arpt MOCLDY 56 53 90 N3 30.16R Atlanta MOCLDY 56 47 71 E8 30.11S Charlotte CLOUDY 54 46 74 E9 30.21R Dallas DFW PTCLDY 54 50 86 NW9 29.90R Houston Bush MOCLDY 58 57 97 CALM 29.93S Wash National CLOUDY 42 25 50 E6 30.36S Wash Dulles CLOUDY 39 23 52 CALM 30.33S Baltimore CLOUDY 37 21 52 E6 30.35R WCI 32 Philadelphia MOCLDY 35 17 47 NE7 30.38R WCI 29 Newark PTCLDY 32 16 51 NE7 30.38S WCI 26 Laguardia CLOUDY 36 17 46 NE8 30.38F WCI 30 J F K PTCLDY 31 17 56 NE8 30.40S WCI 23 Boston CLEAR 31 15 52 NW8 30.38S WCI 23 Pittsburg CLOUDY 46 32 58 SE10 30.08F Akron CLOUDY 50 32 50 SE9 30.03F Cleveland CLOUDY 51 32 48 S13 30.03F Cincinnati MOCLDY 50 41 71 S8 30.01S Columbus CLOUDY 41 40 93 CALM 30.03S Detroit CLOUDY 39 32 76 CALM 30.01S Chicago O`Hare LGT RAIN 55 51 86 S8 29.90S Minneapolis PTCLDY 36 33 89 CALM 29.88S FOG Indianapolis CLOUDY 52 44 74 SE3 29.98R $$

USA.gov is the U.S. government's official web portal to all federal, state and local government web resources and services.